Simultaneous Nadir Overpasses (SNOs) Predictions

Prediction of SNOs between GOES-14 and AQUA Satellite Orbit:

Table of predicted SNOs for the next 14.0 days since TLE Epoch: 9/7/2024
Index Date Time (GOES-14) GOES-14 Lat,Lon AQUA Lat,Lon Distance(km) Time Diff (sec)
1 09/07/2024 09:16:31 -0.01,-108.40 -0.64,-105.39 341.79 80
2 09/07/2024 21:36:34 0.01,-108.34 -0.41,-110.24 216.94 80
3 09/09/2024 21:21:48 0.01,-108.34 0.49,-105.98 268.61 80
4 09/10/2024 09:41:42 -0.01,-108.41 0.52,-110.79 271.31 80
5 09/12/2024 09:21:34 -0.01,-108.41 -0.42,-106.53 214.60 80
6 09/12/2024 21:41:34 0.02,-108.34 -0.66,-111.36 344.49 80
7 09/14/2024 21:26:43 0.02,-108.34 0.27,-107.08 142.70 80
8 09/15/2024 09:46:36 -0.02,-108.41 0.72,-111.90 395.96 80
9 09/17/2024 09:26:22 -0.02,-108.41 -0.20,-107.60 92.44 80
10 09/17/2024 21:46:22 0.02,-108.33 -0.85,-112.43 466.56 80
11 09/19/2024 21:31:25 0.02,-108.33 0.05,-108.12 23.50 80
